QPF
0.00 0.00 0.00 0.00 0.00 0.00 0.00 0.00 0.00 0.00 0.00 0.00 0.00 0.00 0.00 0.00 0.00 0.00 0.00 0.01 0.02 0.02 0.03 0.03 0.03 0.03 0.03 0.04 0.05 0.07 0.10 0.11 0.10 0.07 0.06 0.08 0.09 0.10 0.10 0.09 0.09 0.11 0.08 0.05
0.00 0.00 0.00 0.00 0.00 0.00 0.00 0.00 0.00 0.00 0.00 0.00 0.00 0.00 0.00 0.00 0.01 0.01 0.01 0.01 0.02 0.02 0.02 0.02 0.02 0.02 0.02 0.03 0.03 0.05 0.06 0.07 0.08 0.07 0.07 0.08 0.08 0.08 0.08 0.07 0.07 0.07 0.06 0.04
0.00 0.00 0.00 0.00 0.00 0.00 0.00 0.00 0.00 0.00 0.00 0.00 0.00 0.00 0.00 0.00 0.01 0.01 0.01 0.01 0.01 0.01 0.01 0.02 0.02 0.02 0.02 0.03 0.03 0.04 0.04 0.05 0.06 0.07 0.07 0.06 0.07 0.06 0.06 0.06 0.05 0.05 0.05 0.05
0.00 0.00 0.00 0.00 0.00 0.00 0.00 0.00 0.00 0.00 0.00 0.01 0.00 0.01 0.00 0.00 0.00 0.01 0.01 0.01 0.01 0.01 0.01 0.02 0.01 0.02 0.02 0.03 0.03 0.05 0.05 0.05 0.06 0.06 0.07 0.07 0.07 0.06 0.05 0.04 0.03 0.03 0.04 0.04
0.00 0.00 0.00 0.00 0.00 0.00 0.00 0.00 0.00 0.00 0.00 0.00 0.00 0.01 0.00 0.00 0.00 0.00 0.00 0.00 0.01 0.01 0.01 0.02 0.01 0.02 0.03 0.03 0.02 0.03 0.04 0.05 0.05 0.07 0.10 0.09 0.08 0.08 0.05 0.03 0.03 0.03 0.03 0.04
0.00 0.00 0.00 0.00 0.00 0.00 0.00 0.00 0.00 0.00 0.00 0.01 0.00 0.00 0.00 0.00 0.00 0.00 0.00 0.01 0.01 0.01 0.01 0.01 0.02 0.02 0.03 0.03 0.02 0.02 0.03 0.04 0.04 0.07 0.11 0.11 0.09 0.08 0.06 0.04 0.03 0.03 0.03 0.03
0.00 0.00 0.00 0.00 0.00 0.00 0.00 0.00 0.01 0.01 0.02 0.01 0.00 0.00 0.00 0.00 0.00 0.00 0.00 0.00 0.01 0.02 0.03 0.01 0.01 0.02 0.02 0.03 0.02 0.02 0.03 0.03 0.04 0.05 0.09 0.12 0.10 0.07 0.05 0.05 0.04 0.03 0.04 0.04
0.00 0.00 0.00 0.00 0.00 0.00 0.00 0.00 0.01 0.01 0.01 0.00 0.00 0.00 0.00 0.00 0.00 0.00 0.00 0.00 0.01 0.03 0.03 0.01 0.01 0.03 0.03 0.03 0.02 0.03 0.03 0.04 0.04 0.05 0.07 0.08 0.09 0.07 0.05 0.06 0.06 0.03 0.03 0.03
0.00 0.00 0.00 0.00 0.00 0.00 0.00 0.00 0.00 0.00 0.00 0.01 0.00 0.00 0.00 0.00 0.00 0.00 0.00 0.00 0.00 0.01 0.01 0.01 0.01 0.03 0.02 0.02 0.02 0.03 0.03 0.03 0.03 0.04 0.05 0.06 0.07 0.06 0.06 0.06 0.06 0.03 0.02 0.02
0.00 0.00 0.00 0.00 0.00 0.00 0.00 0.00 0.00 0.01 0.01 0.01 0.00 0.00 0.00 0.00 0.00 0.00 0.00 0.00 0.00 0.00 0.00 0.01 0.01 0.02 0.02 0.01 0.01 0.03 0.02 0.02 0.02 0.02 0.04 0.04 0.05 0.04 0.05 0.04 0.03 0.02 0.01 0.01
0.00 0.00 0.00 0.00 0.00 0.00 0.00 0.00 0.00 0.00 0.00 0.01 0.01 0.00 0.00 0.00 0.00 0.00 0.00 0.00 0.00 0.00 0.00 0.00 0.01 0.01 0.01 0.01 0.01 0.02 0.02 0.02 0.01 0.01 0.02 0.03 0.03 0.03 0.03 0.03 0.02 0.02 0.02 0.01
0.00 0.00 0.00 0.00 0.00 0.00 0.00 0.00 0.00 0.01 0.01 0.01 0.01 0.00 0.00 0.00 0.00 0.00 0.00 0.00 0.00 0.00 0.00 0.00 0.00 0.00 0.01 0.01 0.01 0.01 0.01 0.01 0.01 0.01 0.02 0.03 0.02 0.01 0.01 0.01 0.02 0.02 0.02 0.01
0.00 0.01 0.02 0.01 0.01 0.00 0.00 0.00 0.00 0.00 0.01 0.01 0.01 0.00 0.00 0.00 0.00 0.00 0.00 0.00 0.00 0.00 0.00 0.00 0.00 0.00 0.00 0.00 0.01 0.01 0.01 0.01 0.00 0.01 0.02 0.03 0.02 0.01 0.01 0.01 0.01 0.01 0.01 0.01
0.00 0.02 0.02 0.01 0.01 0.00 0.00 0.00 0.00 0.00 0.00 0.01 0.01 0.00 0.00 0.00 0.00 0.00 0.00 0.00 0.00 0.00 0.00 0.01 0.00 0.00 0.00 0.01 0.01 0.01 0.01 0.01 0.01 0.01 0.02 0.02 0.02 0.01 0.01 0.01 0.01 0.01 0.01 0.01
0.00 0.01 0.01 0.00 0.00 0.00 0.00 0.00 0.00 0.00 0.00 0.01 0.01 0.00 0.00 0.00 0.00 0.00 0.00 0.00 0.00 0.00 0.00 0.00 0.01 0.01 0.00 0.00 0.00 0.00 0.00 0.01 0.01 0.01 0.01 0.01 0.01 0.01 0.00 0.00 0.00 0.01 0.01 0.01
0.00 0.00 0.00 0.00 0.00 0.00 0.00 0.00 0.00 0.00 0.00 0.01 0.01 0.00 0.00 0.00 0.00 0.01 0.00 0.00 0.00 0.00 0.00 0.00 0.00 0.00 0.00 0.00 0.00 0.00 0.00 0.00 0.01 0.01 0.01 0.01 0.01 0.00 0.00 0.00 0.00 0.00 0.00 0.00
0.00 0.01 0.01 0.01 0.01 0.01 0.01 0.01 0.00 0.00 0.00 0.01 0.01 0.01 0.01 0.00 0.00 0.01 0.00 0.00 0.01 0.01 0.00 0.00 0.00 0.00 0.00 0.00 0.00 0.00 0.00 0.00 0.01 0.01 0.01 0.01 0.00 0.00 0.00 0.00 0.00 0.00 0.00 0.00
0.01 0.02 0.02 0.02 0.02 0.02 0.02 0.01 0.00 0.00 0.00 0.01 0.01 0.02 0.01 0.01 0.00 0.00 0.00 0.00 0.00 0.00 0.00 0.01 0.00 0.00 0.00 0.00 0.00 0.00 0.00 0.00 0.01 0.01 0.01 0.00 0.00 0.00 0.00 0.00 0.00 0.00 0.00 0.00
0.01 0.03 0.03 0.03 0.03 0.02 0.02 0.02 0.02 0.01 0.01 0.01 0.02 0.02 0.02 0.01 0.00 0.01 0.00 0.00 0.00 0.00 0.00 0.00 0.00 0.00 0.00 0.00 0.00 0.00 0.00 0.00 0.00 0.00 0.00 0.00 0.00 0.00 0.01 0.01 0.01 0.01 0.01 0.00
0.02 0.03 0.05 0.05 0.03 0.03 0.02 0.02 0.03 0.03 0.03 0.03 0.03 0.03 0.02 0.01 0.02 0.02 0.01 0.01 0.00 0.00 0.00 0.00 0.00 0.00 0.00 0.00 0.00 0.00 0.00 0.00 0.00 0.00 0.01 0.01 0.00 0.00 0.00 0.01 0.01 0.01 0.01 0.01
0.04 0.05 0.05 0.04 0.04 0.03 0.01 0.01 0.03 0.05 0.05 0.03 0.04 0.03 0.02 0.01 0.02 0.02 0.01 0.01 0.01 0.00 0.00 0.00 0.00 0.00 0.00 0.00 0.00 0.00 0.00 0.00 0.00 0.00 0.00 0.00 0.00 0.01 0.01 0.01 0.01 0.01 0.01 0.01
0.05 0.05 0.04 0.05 0.05 0.04 0.02 0.03 0.07 0.06 0.03 0.03 0.03 0.03 0.02 0.01 0.01 0.01 0.01 0.00 0.00 0.00 0.00 0.00 0.00 0.00 0.00 0.00 0.00 0.01 0.01 0.01 0.00 0.00 0.00 0.01 0.01 0.02 0.02 0.01 0.01 0.01 0.01 0.02
0.05 0.05 0.05 0.06 0.05 0.04 0.03 0.04 0.05 0.04 0.03 0.02 0.03 0.05 0.02 0.02 0.01 0.01 0.01 0.00 0.00 0.00 0.00 0.00 0.00 0.00 0.00 0.00 0.00 0.00 0.00 0.01 0.01 0.01 0.00 0.01 0.01 0.02 0.02 0.01 0.01 0.01 0.01 0.02
0.05 0.06 0.06 0.05 0.04 0.04 0.04 0.03 0.03 0.02 0.03 0.02 0.03 0.05 0.06 0.03 0.02 0.01 0.01 0.00 0.00 0.00 0.01 0.00 0.00 0.00 0.00 0.00 0.00 0.00 0.00 0.01 0.01 0.01 0.01 0.01 0.01 0.01 0.01 0.02 0.01 0.01 0.01 0.01
0.06 0.08 0.09 0.07 0.06 0.06 0.06 0.04 0.03 0.03 0.03 0.02 0.03 0.04 0.04 0.03 0.01 0.02 0.02 0.01 0.01 0.01 0.01 0.02 0.02 0.01 0.01 0.01 0.00 0.01 0.01 0.01 0.01 0.02 0.01 0.02 0.02 0.02 0.02 0.01 0.02 0.02 0.02 0.02
0.05 0.09 0.11 0.12 0.11 0.08 0.06 0.06 0.05 0.03 0.03 0.02 0.02 0.02 0.02 0.01 0.01 0.02 0.02 0.02 0.01 0.02 0.03 0.04 0.04 0.03 0.02 0.02 0.02 0.01 0.02 0.02 0.02 0.02 0.02 0.02 0.02 0.02 0.02 0.03 0.03 0.03 0.02 0.02
MSLP
1007.78 1008.24 1008.55 1008.72 1008.79 1008.79 1008.77 1008.77 1008.80 1008.87 1008.96 1009.05 1009.14 1009.22 1009.30 1009.41 1009.57 1009.79 1010.09 1010.46 1010.87 1011.30 1011.71 1012.07 1012.38 1012.64 1012.87 1013.11 1013.38 1013.72 1014.13 1014.59 1015.09 1015.58 1016.03 1016.41 1016.73 1016.97 1017.17 1017.35 1017.53 1017.74 1017.97 1018.22
1008.02 1008.38 1008.60 1008.69 1008.70 1008.67 1008.65 1008.66 1008.72 1008.80 1008.88 1008.96 1009.00 1009.02 1009.03 1009.07 1009.18 1009.38 1009.68 1010.08 1010.53 1011.00 1011.44 1011.83 1012.15 1012.40 1012.63 1012.86 1013.15 1013.51 1013.98 1014.52 1015.11 1015.70 1016.25 1016.72 1017.08 1017.35 1017.53 1017.67 1017.80 1017.95 1018.13 1018.34
1008.06 1008.33 1008.45 1008.48 1008.46 1008.43 1008.45 1008.52 1008.63 1008.76 1008.86 1008.92 1008.91 1008.86 1008.78 1008.73 1008.76 1008.91 1009.18 1009.58 1010.06 1010.57 1011.06 1011.50 1011.85 1012.13 1012.37 1012.62 1012.92 1013.32 1013.83 1014.43 1015.10 1015.78 1016.41 1016.94 1017.36 1017.64 1017.82 1017.94 1018.03 1018.14 1018.28 1018.47
1007.89 1008.07 1008.13 1008.12 1008.10 1008.13 1008.22 1008.39 1008.59 1008.79 1008.93 1008.97 1008.91 1008.76 1008.57 1008.40 1008.32 1008.38 1008.60 1008.97 1009.47 1010.03 1010.58 1011.08 1011.50 1011.84 1012.12 1012.40 1012.72 1013.14 1013.68 1014.32 1015.04 1015.77 1016.46 1017.05 1017.50 1017.82 1018.01 1018.12 1018.20 1018.28 1018.41 1018.58
1007.56 1007.66 1007.68 1007.67 1007.70 1007.81 1008.02 1008.30 1008.62 1008.90 1009.09 1009.12 1009.00 1008.75 1008.42 1008.10 1007.88 1007.82 1007.95 1008.29 1008.79 1009.39 1010.02 1010.60 1011.10 1011.52 1011.86 1012.18 1012.54 1012.97 1013.52 1014.17 1014.89 1015.64 1016.36 1016.98 1017.47 1017.82 1018.04 1018.17 1018.25 1018.35 1018.48 1018.66
1007.10 1007.16 1007.16 1007.19 1007.29 1007.51 1007.85 1008.28 1008.72 1009.10 1009.32 1009.35 1009.16 1008.80 1008.32 1007.84 1007.46 1007.25 1007.29 1007.57 1008.06 1008.69 1009.39 1010.06 1010.67 1011.17 1011.59 1011.97 1012.35 1012.78 1013.31 1013.93 1014.63 1015.37 1016.08 1016.71 1017.23 1017.61 1017.87 1018.03 1018.16 1018.28 1018.44 1018.65
1006.58 1006.62 1006.65 1006.73 1006.92 1007.26 1007.74 1008.30 1008.86 1009.31 1009.58 1009.59 1009.34 1008.86 1008.25 1007.60 1007.06 1006.72 1006.64 1006.85 1007.32 1007.97 1008.73 1009.50 1010.20 1010.80 1011.30 1011.72 1012.12 1012.54 1013.03 1013.60 1014.25 1014.93 1015.61 1016.23 1016.76 1017.18 1017.48 1017.70 1017.88 1018.06 1018.26 1018.51
1006.05 1006.09 1006.16 1006.31 1006.60 1007.06 1007.65 1008.32 1008.97 1009.48 1009.77 1009.76 1009.46 1008.89 1008.16 1007.38 1006.69 1006.22 1006.04 1006.18 1006.62 1007.29 1008.10 1008.94 1009.73 1010.41 1010.98 1011.44 1011.85 1012.24 1012.68 1013.18 1013.75 1014.37 1015.00 1015.59 1016.12 1016.56 1016.91 1017.19 1017.43 1017.67 1017.93 1018.23
1005.52 1005.60 1005.71 1005.94 1006.31 1006.85 1007.53 1008.27 1008.97 1009.51 1009.81 1009.79 1009.45 1008.82 1008.00 1007.13 1006.35 1005.79 1005.53 1005.61 1006.02 1006.69 1007.52 1008.41 1009.26 1010.01 1010.63 1011.13 1011.54 1011.91 1012.29 1012.72 1013.20 1013.74 1014.30 1014.86 1015.38 1015.83 1016.22 1016.56 1016.86 1017.16 1017.47 1017.82
1005.01 1005.14 1005.31 1005.60 1006.03 1006.62 1007.33 1008.08 1008.79 1009.34 1009.63 1009.59 1009.23 1008.59 1007.75 1006.84 1006.02 1005.42 1005.11 1005.16 1005.53 1006.19 1007.02 1007.94 1008.82 1009.62 1010.27 1010.80 1011.21 1011.56 1011.90 1012.26 1012.67 1013.13 1013.63 1014.14 1014.64 1015.10 1015.52 1015.90 1016.25 1016.60 1016.96 1017.34
1004.54 1004.72 1004.95 1005.28 1005.73 1006.32 1007.01 1007.74 1008.40 1008.91 1009.18 1009.14 1008.79 1008.16 1007.36 1006.49 1005.70 1005.10 1004.79 1004.82 1005.17 1005.80 1006.62 1007.52 1008.41 1009.22 1009.90 1010.45 1010.87 1011.21 1011.53 1011.85 1012.21 1012.62 1013.07 1013.54 1014.02 1014.48 1014.91 1015.31 1015.70 1016.07 1016.46 1016.86
1004.12 1004.36 1004.64 1004.99 1005.43 1005.98 1006.60 1007.24 1007.82 1008.26 1008.49 1008.44 1008.12 1007.57 1006.84 1006.06 1005.35 1004.82 1004.54 1004.58 1004.91 1005.50 1006.27 1007.14 1008.01 1008.82 1009.50 1010.06 1010.51 1010.87 1011.19 1011.51 1011.85 1012.24 1012.66 1013.11 1013.57 1014.02 1014.45 1014.86 1015.26 1015.65 1016.04 1016.45
1003.78 1004.09 1004.41 1004.76 1005.17 1005.64 1006.15 1006.66 1007.13 1007.47 1007.63 1007.58 1007.31 1006.84 1006.24 1005.59 1005.01 1004.57 1004.35 1004.40 1004.72 1005.26 1005.97 1006.78 1007.60 1008.37 1009.05 1009.62 1010.10 1010.50 1010.85 1011.20 1011.57 1011.96 1012.38 1012.82 1013.27 1013.72 1014.15 1014.56 1014.95 1015.34 1015.74 1016.14
1003.57 1003.94 1004.29 1004.64 1004.99 1005.36 1005.74 1006.10 1006.42 1006.64 1006.74 1006.67 1006.45 1006.07 1005.61 1005.11 1004.67 1004.35 1004.21 1004.28 1004.57 1005.05 1005.67 1006.39 1007.13 1007.85 1008.50 1009.09 1009.59 1010.05 1010.47 1010.87 1011.29 1011.72 1012.17 1012.63 1013.08 1013.53 1013.95 1014.35 1014.74 1015.13 1015.51 1015.90
1003.51 1003.94 1004.32 1004.66 1004.95 1005.21 1005.45 1005.65 1005.81 1005.91 1005.92 1005.83 1005.64 1005.36 1005.03 1004.68 1004.38 1004.17 1004.10 1004.19 1004.44 1004.84 1005.37 1005.97 1006.61 1007.25 1007.86 1008.43 1008.97 1009.47 1009.96 1010.45 1010.94 1011.43 1011.93 1012.42 1012.89 1013.34 1013.77 1014.17 1014.55 1014.93 1015.30 1015.69
1003.62 1004.10 1004.51 1004.84 1005.07 1005.23 1005.34 1005.39 1005.39 1005.36 1005.28 1005.16 1005.00 1004.79 1004.57 1004.36 1004.18 1004.07 1004.05 1004.14 1004.35 1004.66 1005.06 1005.52 1006.03 1006.57 1007.11 1007.66 1008.21 1008.75 1009.30 1009.86 1010.43 1010.99 1011.54 1012.08 1012.58 1013.06 1013.49 1013.90 1014.29 1014.67 1015.05 1015.43
1003.88 1004.40 1004.83 1005.14 1005.34 1005.42 1005.41 1005.33 1005.20 1005.06 1004.90 1004.74 1004.58 1004.43 1004.29 1004.18 1004.10 1004.06 1004.08 1004.15 1004.29 1004.50 1004.76 1005.08 1005.45 1005.86 1006.31 1006.80 1007.33 1007.89 1008.48 1009.10 1009.73 1010.36 1010.97 1011.55 1012.09 1012.59 1013.05 1013.48 1013.88 1014.28 1014.67 1015.06
1004.22 1004.77 1005.21 1005.52 1005.68 1005.71 1005.62 1005.44 1005.22 1004.99 1004.76 1004.57 1004.41 1004.29 1004.21 1004.17 1004.15 1004.15 1004.18 1004.23 1004.29 1004.39 1004.51 1004.68 1004.89 1005.16 1005.50 1005.90 1006.38 1006.93 1007.53 1008.18 1008.85 1009.53 1010.19 1010.81 1011.39 1011.93 1012.42 1012.87 1013.30 1013.72 1014.13 1014.55
1004.58 1005.12 1005.56 1005.86 1006.00 1006.00 1005.87 1005.64 1005.36 1005.08 1004.81 1004.59 1004.43 1004.33 1004.28 1004.28 1004.29 1004.32 1004.34 1004.34 1004.34 1004.33 1004.32 1004.34 1004.40 1004.52 1004.73 1005.04 1005.44 1005.94 1006.52 1007.17 1007.86 1008.56 1009.25 1009.91 1010.52 1011.09 1011.61 1012.10 1012.56 1013.00 1013.45 1013.90
1004.89 1005.38 1005.79 1006.07 1006.20 1006.19 1006.05 1005.81 1005.52 1005.22 1004.94 1004.71 1004.55 1004.46 1004.43 1004.44 1004.47 1004.49 1004.49 1004.46 1004.38 1004.27 1004.15 1004.03 1003.96 1003.95 1004.04 1004.23 1004.55 1004.98 1005.52 1006.14 1006.82 1007.53 1008.23 1008.91 1009.56 1010.15 1010.70 1011.22 1011.71 1012.19 1012.67 1013.14
1005.10 1005.50 1005.85 1006.09 1006.21 1006.21 1006.08 1005.86 1005.59 1005.31 1005.04 1004.82 1004.67 1004.58 1004.55 1004.56 1004.58 1004.59 1004.56 1004.48 1004.34 1004.15 1003.94 1003.72 1003.54 1003.42 1003.39 1003.49 1003.72 1004.08 1004.56 1005.15 1005.81 1006.50 1007.22 1007.91 1008.57 1009.19 1009.77 1010.31 1010.83 1011.33 1011.83 1012.33
1005.18 1005.47 1005.73 1005.91 1006.01 1006.01 1005.91 1005.73 1005.51 1005.26 1005.03 1004.83 1004.69 1004.60 1004.56 1004.54 1004.54 1004.51 1004.44 1004.31 1004.13 1003.88 1003.60 1003.31 1003.04 1002.84 1002.74 1002.76 1002.91 1003.22 1003.65 1004.20 1004.84 1005.53 1006.24 1006.94 1007.62 1008.26 1008.86 1009.42 1009.96 1010.48 1011.00 1011.51
1005.18 1005.32 1005.46 1005.57 1005.63 1005.62 1005.55 1005.42 1005.25 1005.05 1004.86 1004.69 1004.55 1004.45 1004.38 1004.32 1004.27 1004.19 1004.07 1003.89 1003.66 1003.37 1003.04 1002.70 1002.40 1002.15 1002.00 1001.97 1002.09 1002.35 1002.76 1003.29 1003.91 1004.59 1005.31 1006.03 1006.72 1007.38 1008.00 1008.58 1009.13 1009.66 1010.18 1010.71
1005.15 1005.13 1005.13 1005.14 1005.14 1005.12 1005.06 1004.97 1004.85 1004.70 1004.55 1004.39 1004.25 1004.12 1004.00 1003.89 1003.76 1003.62 1003.43 1003.19 1002.91 1002.58 1002.22 1001.87 1001.54 1001.28 1001.11 1001.08 1001.18 1001.43 1001.83 1002.36 1002.99 1003.69 1004.42 1005.15 1005.87 1006.55 1007.18 1007.78 1008.34 1008.88 1009.41 1009.94
1005.16 1004.97 1004.83 1004.73 1004.66 1004.60 1004.55 1004.48 1004.39 1004.27 1004.14 1003.99 1003.83 1003.66 1003.48 1003.29 1003.08 1002.84 1002.57 1002.27 1001.93 1001.56 1001.18 1000.82 1000.49 1000.24 1000.08 1000.06 1000.18 1000.44 1000.86 1001.41 1002.06 1002.78 1003.54 1004.30 1005.05 1005.75 1006.41 1007.02 1007.60 1008.14 1008.68 1009.21
1005.26 1004.92 1004.65 1004.44 1004.29 1004.18 1004.10 1004.04 1003.96 1003.87 1003.75 1003.59 1003.40 1003.18 1002.92 1002.64 1002.33 1002.00 1001.64 1001.26 1000.86 1000.45 1000.04 999.67 999.35 999.11 998.98 998.99 999.13 999.43 999.88 1000.46 1001.14 1001.90 1002.69 1003.49 1004.27 1005.01 1005.69 1006.32 1006.91 1007.47 1008.01 1008.55
Thickness
5772 5768 5765 5772 5777 5777 5773 5768 5767 5774 5783 5775 5773 5775 5778 5777 5774 5770 5767 5763 5759 5756 5756 5754 5750 5747 5743 5740 5738 5736 5733 5731 5729 5728 5726 5724 5723 5724 5723 5722 5721 5721 5721 5721
5759 5761 5776 5779 5775 5770 5767 5763 5766 5773 5777 5772 5771 5773 5781 5778 5774 5774 5769 5764 5761 5755 5752 5749 5747 5744 5741 5738 5736 5734 5731 5730 5729 5728 5726 5724 5723 5722 5721 5721 5718 5718 5718 5719
5758 5771 5777 5769 5764 5760 5763 5763 5766 5766 5771 5773 5767 5767 5773 5777 5776 5775 5772 5768 5764 5758 5752 5747 5744 5741 5739 5736 5735 5735 5732 5730 5728 5727 5724 5722 5719 5719 5718 5717 5717 5717 5716 5716
5762 5773 5767 5761 5761 5762 5759 5772 5769 5765 5760 5764 5763 5754 5772 5774 5769 5769 5769 5767 5764 5760 5754 5749 5744 5740 5738 5737 5735 5733 5731 5729 5727 5725 5724 5722 5719 5717 5717 5717 5716 5715 5714 5715
5759 5766 5761 5757 5764 5767 5766 5773 5767 5764 5760 5759 5764 5753 5770 5773 5765 5769 5770 5768 5766 5762 5757 5751 5746 5742 5740 5738 5735 5732 5730 5728 5726 5725 5723 5720 5719 5718 5717 5717 5714 5714 5714 5713
5766 5773 5770 5768 5772 5772 5769 5764 5761 5761 5761 5745 5759 5752 5758 5776 5774 5777 5775 5771 5768 5764 5759 5753 5748 5743 5739 5737 5735 5732 5728 5726 5725 5724 5722 5719 5718 5716 5715 5714 5713 5713 5714 5713
5751 5761 5771 5773 5761 5764 5761 5750 5737 5735 5738 5745 5763 5752 5762 5782 5784 5782 5778 5775 5770 5766 5760 5753 5747 5742 5739 5736 5734 5732 5728 5725 5725 5723 5721 5720 5718 5716 5714 5714 5713 5714 5714 5713
5740 5745 5763 5767 5762 5758 5758 5755 5735 5724 5733 5750 5755 5750 5771 5783 5785 5784 5782 5778 5771 5765 5761 5754 5748 5744 5740 5737 5735 5732 5729 5726 5725 5723 5721 5720 5719 5718 5717 5715 5716 5715 5716 5715
5745 5746 5763 5766 5769 5765 5754 5755 5765 5748 5747 5740 5753 5761 5773 5780 5778 5777 5776 5773 5769 5765 5760 5755 5750 5746 5742 5739 5736 5734 5730 5727 5725 5724 5721 5719 5718 5718 5718 5715 5715 5716 5714 5713
5754 5741 5755 5759 5762 5761 5764 5762 5750 5741 5725 5727 5743 5752 5760 5767 5770 5773 5772 5770 5768 5765 5761 5756 5752 5748 5744 5742 5738 5735 5731 5728 5726 5723 5721 5720 5718 5717 5716 5715 5714 5714 5712 5711
5754 5739 5744 5748 5745 5750 5748 5748 5748 5749 5746 5731 5729 5747 5775 5772 5773 5772 5773 5773 5769 5766 5762 5758 5754 5750 5747 5744 5740 5735 5732 5729 5726 5724 5722 5720 5718 5717 5716 5714 5713 5712 5711 5709
5747 5743 5737 5744 5756 5758 5753 5750 5748 5734 5732 5739 5737 5749 5780 5778 5777 5776 5774 5773 5772 5768 5764 5760 5756 5752 5748 5745 5741 5737 5734 5731 5728 5725 5723 5720 5719 5717 5715 5714 5713 5711 5709 5708
5740 5730 5719 5726 5734 5742 5743 5747 5747 5745 5738 5736 5733 5747 5774 5775 5774 5774 5773 5771 5768 5766 5763 5760 5755 5751 5748 5746 5743 5739 5736 5733 5730 5727 5723 5721 5719 5717 5715 5714 5712 5710 5709 5708
5736 5727 5722 5719 5729 5738 5735 5740 5742 5738 5732 5736 5741 5750 5763 5767 5767 5769 5770 5767 5766 5763 5761 5758 5754 5751 5749 5746 5744 5741 5737 5735 5732 5728 5725 5722 5720 5718 5716 5714 5712 5710 5708 5707
5729 5722 5725 5731 5736 5736 5735 5736 5738 5735 5738 5736 5743 5749 5757 5763 5766 5767 5768 5766 5763 5760 5758 5757 5753 5751 5748 5746 5743 5741 5739 5736 5733 5728 5725 5723 5721 5718 5716 5713 5711 5709 5707 5706
5719 5713 5717 5718 5728 5728 5725 5733 5736 5736 5738 5738 5741 5744 5759 5764 5766 5764 5764 5763 5760 5759 5759 5757 5755 5752 5749 5747 5744 5742 5739 5737 5733 5729 5726 5724 5721 5718 5715 5713 5711 5708 5706 5705
5712 5704 5701 5707 5719 5715 5711 5730 5733 5734 5738 5737 5734 5744 5753 5754 5755 5758 5761 5762 5761 5761 5760 5758 5756 5754 5751 5750 5747 5743 5741 5737 5734 5730 5727 5725 5722 5719 5716 5714 5711 5709 5706 5705
5698 5695 5698 5702 5701 5686 5719 5738 5736 5732 5734 5738 5738 5742 5747 5749 5755 5760 5762 5761 5761 5761 5760 5760 5759 5756 5755 5753 5750 5746 5743 5738 5734 5731 5729 5726 5723 5720 5717 5715 5712 5709 5707 5705
5698 5690 5690 5692 5691 5699 5715 5725 5725 5721 5720 5732 5732 5736 5743 5750 5753 5756 5761 5762 5761 5763 5763 5762 5762 5761 5757 5755 5751 5747 5743 5740 5736 5734 5731 5729 5726 5722 5719 5715 5713 5711 5708 5705
5688 5686 5683 5684 5679 5684 5705 5719 5724 5718 5708 5723 5727 5729 5735 5742 5739 5746 5756 5759 5760 5761 5762 5761 5762 5761 5757 5755 5752 5747 5744 5740 5738 5737 5735 5732 5728 5724 5721 5718 5714 5711 5708 5705
5673 5673 5675 5678 5678 5692 5705 5713 5714 5696 5698 5713 5720 5724 5728 5732 5737 5745 5751 5753 5755 5757 5758 5759 5759 5758 5756 5755 5751 5746 5744 5742 5742 5740 5736 5733 5729 5725 5721 5717 5713 5710 5707 5705
5671 5672 5672 5676 5672 5679 5698 5703 5696 5694 5702 5707 5712 5718 5722 5727 5733 5739 5743 5746 5749 5752 5753 5755 5754 5753 5754 5753 5749 5746 5745 5745 5742 5739 5735 5731 5728 5725 5722 5716 5712 5709 5705 5702
5668 5672 5675 5675 5676 5683 5691 5690 5692 5695 5696 5700 5706 5713 5717 5721 5727 5732 5736 5739 5742 5745 5747 5749 5749 5748 5749 5749 5748 5744 5744 5743 5740 5736 5732 5729 5726 5723 5721 5715 5710 5706 5702 5701
5662 5666 5667 5668 5673 5677 5682 5685 5687 5690 5692 5697 5703 5707 5712 5715 5721 5725 5729 5732 5735 5738 5740 5742 5743 5743 5743 5744 5744 5743 5742 5740 5736 5732 5729 5726 5723 5719 5717 5714 5711 5708 5705 5702
5652 5656 5659 5660 5665 5670 5674 5677 5680 5683 5688 5693 5699 5704 5709 5712 5714 5718 5721 5724 5727 5730 5733 5735 5736 5736 5736 5738 5738 5739 5738 5735 5731 5729 5726 5724 5721 5718 5714 5710 5710 5707 5705 5704
5648 5649 5649 5653 5659 5660 5663 5670 5675 5677 5680 5686 5691 5696 5703 5706 5708 5712 5714 5717 5720 5723 5725 5727 5728 5729 5730 5731 5730 5731 5731 5729 5727 5724 5721 5721 5718 5714 5711 5707 5703 5697 5697 5693